ATLAS 5 CENTAUR DEB, 46604

Orbit data source: Space-Track

ATLAS 5 CENTAUR DEB, 46604 is space debris in HEO originally from a launch on Wed, 17 Oct 2018 UTC launched from the Air Force Eastern Test Range (AFETR). Debris objects in space refer to the collection of defunct objects orbiting the Earth. Examples of debris include non-operational satellites, rocket bodies, and fragments generated from explosions, collisions, or faulty payload assembly.

Loading next visibility...
Identifier
46604, 2018-079CC
Orbit
HEO
Country
Flag of USUS
Related business
Flag of USUnited Launch Alliance/Lockheed Martin (US)
Manufacturer
ULA Decatur
Mission
Spacecraft
Bus & Motor
Unknown
Mass
Unknown
Launch date (UTC)
2018-10-17 (7 years ago)
Launch vehicle
Unknown
Launch site
Air Force Eastern Test Range (AFETR)
Object type
Payload
Rocket body
Debris
Shape & HBR
Unknown shape, 1.1 m
Radar Cross Section
RCS unknown

Expand to show TLE details & history
Last TLE update: 4 days ago

TLE from 4 days ago
0 ATLAS 5 CENTAUR DEB
1 46604U 18079CC  25343.66862152 -.00000101  00000-0  00000+0 0  9990
2 46604  13.2069  67.8661 4642029 241.0393  64.8159  1.74515510 38593
Epoch: 2025-12-09T16:02Z
TLE epoch observation values (Epoch: 2025-12-09T16:02:48.899Z)
Latitude
0.00005°
Longitude
108.46008°
Altitude
23,136.549 km
Speed
3.651 km/s
True Right ascension
04h 31m 15s
True Declination
0° 00' 00"
Sunlit
Object was in daylight at epoch
Visualization orbit readout
Latitude
Unknown
Longitude
Unknown
Altitude
Unknown
Speed
Unknown
Apparent Right ascension
Unknown
Apparent Declination
Unknown
Sunlit
N/A
Visualization observer readout
Local Sidereal Time
10:47:10
Azimuth
Unknown
Elevation
Unknown
Doppler factor
Unknown
Orbital elements
Apogee altitude
36,293.951 km
Perigee altitude
9,236.899 km
Semi-major axis
29,143.562 km
Eccentricity
0.4642
Inclination
13.2069°
RAAN
67.8661°
Arg. of periapsis
241.0393°
True anomaly
118.89587°
Mean anomaly
64.8159°
Eccentric anomaly
91.40477°
Mean motion
0.43624 °/min
Orbital period
825.23 mins
BSTAR
0
Loading maneuver chart data...
Computing Atmospheric mass density...

Documentation

Showing up to 5 results
|